Point Salines, Grenada

8:23 AM AST on April 28, 2017 (GMT -0400)
Point Salines International

Weather History for TGPY - September, 2013

Change the Weather History Date:

Thursday, September 5, 2013

  Actual Average Record
Temperature  
Mean Temperature 83 °F -  
Max Temperature 89 °F 85 °F 89 °F (1998)
Min Temperature 77 °F 76 °F 73 °F (1996)
Cooling Degree Days 18    
Growing Degree Days 33 (Base 50)    
Moisture  
Dew Point 79 °F    
Average Humidity 81    
Maximum Humidity 100    
Minimum Humidity 66    
Precipitation  
Precipitation 0.12 in - - ()
Sea Level Pressure  
Sea Level Pressure 29.91 in    
Wind  
Wind Speed 14 mph ()    
Max Wind Speed 23 mph    
Max Gust Speed -    
Visibility 7.2 miles    
Events Rain , Thunderstorm    
Averages and records for this station are not official NWS values.
T = Trace of Precipitation, MM = Missing Value Source: Averaged Metar Reports

Daily Weather History Graph

Daily Weather History Graph

Search for Another Location

Airport or City:

Trip Planner

Search our weather history database for the weather conditions in past years. The results will help you decide how hot, cold, wet, or windy it might be!

Date:

Astronomy

Sep. 05, 2013 Rise Set
Actual Time 5:56 AM AST 6:14 PM AST
Civil Twilight 5:35 AM AST 6:35 PM AST
Nautical Twilight 5:10 AM AST 7:00 PM AST
Astronomical Twilight 4:45 AM AST 7:25 PM AST
Moon 5:53 AM AST (9/5) 6:19 PM AST (9/5)
Length of Visible Light 13h 00m
Length of Day
12h 17m
New Moon, 0% of the Moon is Illuminated
Sep 5
New Moon
Sep 12
First Quarter
Sep 19
Full
Sep 26
Last Quarter
Oct 4
New

Hourly Weather History & Observations

Time (AST) Temp. Heat Index Dew Point Humidity Pressure Visibility Wind Dir Wind Speed Gust Speed Precip Events Conditions
12:00 AM 84.2 °F 96.1 °F 78.8 °F 84% 29.92 in 6.2 mi SE 17.3 mph - N/A   Scattered Clouds
1:00 AM 84.2 °F 96.1 °F 78.8 °F 84% 29.89 in 6.2 mi SE 16.1 mph - N/A   Scattered Clouds
2:00 AM 83 °F - 80 °F 87% 29.89 in 9 mi ESE 16.1 mph - -   Mostly Cloudy
2:00 AM 84.2 °F 98.3 °F 80.6 °F 89% 29.89 in 6.2 mi ESE 16.1 mph - N/A   Mostly Cloudy
3:00 AM 84.2 °F 96.1 °F 78.8 °F 84% 29.86 in 6.2 mi SE 17.3 mph - N/A   Mostly Cloudy
4:00 AM 84.2 °F 96.1 °F 78.8 °F 84% 29.89 in 6.2 mi ESE 18.4 mph - N/A   Scattered Clouds
5:00 AM 84 °F - 79 °F 80% 29.89 in 11 mi ESE 13.8 mph - -   Widespread Dust
5:00 AM 84.2 °F 96.1 °F 78.8 °F 84% 29.89 in 6.2 mi ESE 13.8 mph - N/A   Scattered Clouds
6:00 AM 84.2 °F 96.1 °F 78.8 °F 84% 0.00 in 6.2 mi ESE 13.8 mph - N/A   Mostly Cloudy
8:00 AM 85 °F - 79 °F 77% 29.96 in 7 mi SE 18.4 mph - -   Mostly Cloudy
8:00 AM 86.0 °F 99.3 °F 78.8 °F 79% 29.95 in 6.2 mi SE 18.4 mph - N/A   Mostly Cloudy
9:00 AM 87.8 °F 102.5 °F 78.8 °F 75% 29.98 in 6.2 mi SE 17.3 mph - N/A   Mostly Cloudy
10:00 AM 87.8 °F 102.5 °F 78.8 °F 75% 29.98 in 6.2 mi SSE 17.3 mph - N/A   Mostly Cloudy
11:00 AM 88 °F - 79 °F 68% 29.96 in 11 mi SSE 19.6 mph - -   Widespread Dust
11:00 AM 87.8 °F 102.5 °F 78.8 °F 75% 29.95 in 6.2 mi SSE 19.6 mph - N/A   Mostly Cloudy
12:00 PM 87.8 °F 102.5 °F 78.8 °F 75% 29.92 in 6.2 mi SE 17.3 mph - N/A   Scattered Clouds
1:00 PM 89.6 °F 104.7 °F 78.8 °F 70% 29.89 in 6.2 mi SSE 12.7 mph - N/A   Scattered Clouds
2:00 PM 89 °F - 79 °F 66% 29.88 in 12 mi SSE 16.1 mph - -   Widespread Dust
2:00 PM 87.8 °F 102.5 °F 78.8 °F 75% 29.89 in 6.2 mi SSE 16.1 mph - N/A   Scattered Clouds
3:00 PM 86.0 °F 99.3 °F 78.8 °F 79% 29.86 in 6.2 mi South 17.3 mph - N/A   Mostly Cloudy
4:00 PM 86.0 °F 99.3 °F 78.8 °F 79% 29.86 in 6.2 mi SSE 17.3 mph - N/A   Mostly Cloudy
5:00 PM 85 °F - 79 °F 77% 29.88 in 11 mi South 17.3 mph - -   Partly Cloudy
5:00 PM 86.0 °F 99.3 °F 78.8 °F 79% 29.86 in 6.2 mi South 17.3 mph - N/A Rain Light Rain Showers
6:00 PM 86.0 °F 96.9 °F 77.0 °F 74% 29.89 in 6.2 mi SE 13.8 mph - N/A   Mostly Cloudy
7:00 PM 84.2 °F 96.1 °F 78.8 °F 84% 29.92 in 6.2 mi SE 23.0 mph - N/A Thunderstorm Thunderstorm
8:00 PM 78 °F - 77 °F 94% 29.94 in 12 mi East 9.2 mph - - Rain Light Rain Showers
8:00 PM 77.0 °F - 77.0 °F 100% 29.92 in 6.2 mi East 9.2 mph - N/A Thunderstorm Mostly Cloudy
9:00 PM 78.8 °F - 77.0 °F 94% 29.95 in 6.2 mi East 5.8 mph - N/A   Mostly Cloudy
10:00 PM 82.4 °F 92.4 °F 78.8 °F 89% 29.95 in 6.2 mi SE 11.5 mph - N/A   Mostly Cloudy
11:00 PM 80.6 °F 87.1 °F 77.0 °F 89% 29.95 in 6.2 mi ESE 6.9 mph - N/A   Scattered Clouds